TimeEDT,TemperatureF,Dew PointF,Humidity,Sea Level PressureIn,VisibilityMPH,Wind Direction,Wind SpeedMPH,Gust SpeedMPH,PrecipitationIn,Events,Conditions,WindDirDegrees,DateUTC
12:53 AM,77.0,75.0,94,29.86,10.0,SW,4.6,-,0.01,,Scattered Clouds,220,2012-10-19 04:53:00
1:53 AM,78.1,73.9,87,29.86,10.0,SW,4.6,-,N/A,,Scattered Clouds,220,2012-10-19 05:53:00
2:53 AM,77.0,75.0,94,29.84,10.0,WSW,4.6,-,N/A,,Scattered Clouds,250,2012-10-19 06:53:00
3:53 AM,75.9,73.9,94,29.83,10.0,West,4.6,-,N/A,,Partly Cloudy,260,2012-10-19 07:53:00
4:53 AM,75.0,73.9,96,29.83,10.0,SW,3.5,-,N/A,,Scattered Clouds,230,2012-10-19 08:53:00
5:53 AM,75.9,73.9,94,29.84,10.0,West,3.5,-,N/A,,Scattered Clouds,260,2012-10-19 09:53:00
6:53 AM,73.9,73.0,97,29.86,10.0,Calm,Calm,-,N/A,,Scattered Clouds,0,2012-10-19 10:53:00
7:53 AM,75.0,73.9,96,29.87,10.0,Calm,Calm,-,N/A,,Mostly Cloudy,0,2012-10-19 11:53:00
8:53 AM,79.0,75.9,90,29.88,10.0,NNW,3.5,-,N/A,,Scattered Clouds,330,2012-10-19 12:53:00
9:39 AM,80.6,75.2,84,29.90,10.0,North,3.5,-,N/A,,Mostly Cloudy,10,2012-10-19 13:39:00
9:48 AM,80.6,75.2,84,29.90,10.0,Calm,Calm,-,N/A,,Mostly Cloudy,0,2012-10-19 13:48:00
9:53 AM,81.0,75.0,82,29.90,10.0,Calm,Calm,-,N/A,,Mostly Cloudy,0,2012-10-19 13:53:00
10:53 AM,82.0,73.9,76,29.89,10.0,Variable,3.5,-,N/A,,Mostly Cloudy,0,2012-10-19 14:53:00
11:53 AM,84.9,73.0,67,29.88,10.0,West,5.8,-,N/A,,Mostly Cloudy,260,2012-10-19 15:53:00
12:53 PM,86.0,73.0,65,29.87,10.0,SSE,5.8,-,N/A,,Mostly Cloudy,160,2012-10-19 16:53:00
1:34 PM,84.2,75.2,74,29.85,10.0,SE,5.8,-,0.00,,Mostly Cloudy,130,2012-10-19 17:34:00
1:53 PM,84.9,75.0,72,29.84,10.0,SSE,6.9,-,0.00,,Mostly Cloudy,160,2012-10-19 17:53:00
2:30 PM,87.8,73.4,62,29.82,10.0,SE,8.1,-,N/A,,Mostly Cloudy,140,2012-10-19 18:30:00
2:53 PM,84.9,75.0,72,29.82,10.0,SE,8.1,-,N/A,,Mostly Cloudy,130,2012-10-19 18:53:00
3:53 PM,86.0,75.0,70,29.81,10.0,SSE,9.2,-,N/A,,Mostly Cloudy,150,2012-10-19 19:53:00
4:53 PM,86.0,73.9,67,29.81,10.0,SE,15.0,-,N/A,,Mostly Cloudy,140,2012-10-19 20:53:00
5:53 PM,82.0,73.0,74,29.80,10.0,SSE,13.8,-,N/A,,Mostly Cloudy,150,2012-10-19 21:53:00
6:53 PM,82.0,73.0,74,29.82,10.0,SSE,10.4,-,N/A,,Mostly Cloudy,160,2012-10-19 22:53:00
7:53 PM,81.0,72.0,74,29.84,10.0,SSW,6.9,-,N/A,,Mostly Cloudy,200,2012-10-19 23:53:00
8:53 PM,79.0,71.1,77,29.88,10.0,NNE,9.2,16.1,N/A,,Mostly Cloudy,20,2012-10-20 00:53:00
9:01 PM,78.8,69.8,74,29.89,10.0,North,6.9,-,N/A,,Overcast,10,2012-10-20 01:01:00
9:22 PM,75.2,69.8,83,29.88,2.0,North,13.8,-,0.05,Rain,Heavy Rain,10,2012-10-20 01:22:00
9:30 PM,75.2,69.8,83,29.89,8.0,NNE,12.7,-,0.13,Rain,Light Rain,20,2012-10-20 01:30:00
9:53 PM,73.9,69.1,85,29.89,10.0,NNE,8.1,-,0.13,,Overcast,20,2012-10-20 01:53:00
10:19 PM,75.2,69.8,83,29.89,10.0,ENE,5.8,-,N/A,,Mostly Cloudy,60,2012-10-20 02:19:00
10:53 PM,75.0,72.0,90,29.89,10.0,East,4.6,-,N/A,,Mostly Cloudy,90,2012-10-20 02:53:00
11:53 PM,75.9,73.0,91,29.88,10.0,SSE,5.8,-,N/A,,Scattered Clouds,150,2012-10-20 03:53:00